Location: Woodhurst
(52.3667°N, 0.0667°W)
Time: 21:26:50
(UTC+00:00)

ATLAS 3B R/B - Pass Details

Date: 19 May 2025
Orbit: 935 x 1258 km, 63.8° (Epoch: 18 June)

Event Time Altitude Azimuth Distance (km) Brightness Sun altitude
Exits shadow 23:17:16 20° 198° (SSW) 2,412 4.0 -17.1°
Maximum altitude 23:22:32 61° 125° (SE) 1,366 3.0 -17.3°
Drops below altitude 10° 23:30:14 10° 48° (NE) 3,239 5.7 -17.4°
Sets 23:33:06 0° 45° (NE) 4,219 6.4 -17.5°
